Year,Month,Day,Hour,Minute,Value (Times are PST for temperature in C)
2022,06,07,00,00,11.60
2022,06,07,00,01,11.60
2022,06,07,00,02,11.60
2022,06,07,00,03,11.60
2022,06,07,00,04,11.60
2022,06,07,00,05,11.50
2022,06,07,00,06,11.50
2022,06,07,00,07,11.50
2022,06,07,00,08,11.40
2022,06,07,00,09,11.40
2022,06,07,00,10,11.40
2022,06,07,00,11,11.40
2022,06,07,00,12,11.30
2022,06,07,00,13,11.30
2022,06,07,00,14,11.30
2022,06,07,00,15,11.30
2022,06,07,00,16,11.20
2022,06,07,00,17,11.20
2022,06,07,00,18,11.20
2022,06,07,00,19,11.20
2022,06,07,00,20,11.20
2022,06,07,00,21,11.20
2022,06,07,00,22,11.10
2022,06,07,00,23,11.10
2022,06,07,00,24,11.20
2022,06,07,00,25,11.20
2022,06,07,00,26,11.20
2022,06,07,00,27,11.20
2022,06,07,00,28,11.20
2022,06,07,00,29,11.10
2022,06,07,00,30,11.10
2022,06,07,00,31,11.10
2022,06,07,00,32,11.10
2022,06,07,00,33,11.10
2022,06,07,00,34,11.10
2022,06,07,00,35,11.00
2022,06,07,00,36,11.00
2022,06,07,00,37,11.00
2022,06,07,00,38,10.90
2022,06,07,00,39,10.90
2022,06,07,00,40,10.90
2022,06,07,00,41,10.90
2022,06,07,00,42,10.90
2022,06,07,00,43,10.90
2022,06,07,00,44,10.80
2022,06,07,00,45,10.80
2022,06,07,00,46,10.80
2022,06,07,00,47,10.80
2022,06,07,00,48,10.80
2022,06,07,00,49,10.80
2022,06,07,00,50,10.80
2022,06,07,00,51,10.70
2022,06,07,00,52,10.70
2022,06,07,00,53,10.70
2022,06,07,00,54,10.70
2022,06,07,00,55,10.70
2022,06,07,00,56,10.70
2022,06,07,00,57,10.60
2022,06,07,00,58,10.60
2022,06,07,00,59,10.60
2022,06,07,01,00,10.60
2022,06,07,01,01,10.50
2022,06,07,01,02,10.50
2022,06,07,01,03,10.50
2022,06,07,01,04,10.50
2022,06,07,01,05,10.40
2022,06,07,01,06,10.40
2022,06,07,01,07,10.40
2022,06,07,01,08,10.40
2022,06,07,01,09,10.30
2022,06,07,01,10,10.30
2022,06,07,01,11,10.30
2022,06,07,01,12,10.20
2022,06,07,01,13,10.20
2022,06,07,01,14,10.20
2022,06,07,01,15,10.10
2022,06,07,01,16,10.10
2022,06,07,01,17,10.10
2022,06,07,01,18,10.10
2022,06,07,01,19,10.00
2022,06,07,01,20,10.00
2022,06,07,01,21,10.00
2022,06,07,01,22,9.90
2022,06,07,01,23,9.90
2022,06,07,01,24,9.90
2022,06,07,01,25,9.90
2022,06,07,01,26,9.80
2022,06,07,01,27,9.80
2022,06,07,01,28,9.80
2022,06,07,01,29,9.80
2022,06,07,01,30,9.80
2022,06,07,01,31,9.80
2022,06,07,01,32,9.90
2022,06,07,01,33,9.90
2022,06,07,01,34,9.90
2022,06,07,01,35,9.90
2022,06,07,01,36,9.90
2022,06,07,01,37,9.90
2022,06,07,01,38,9.80
2022,06,07,01,39,9.80
2022,06,07,01,40,9.80
2022,06,07,01,41,9.80
2022,06,07,01,42,9.70
2022,06,07,01,43,9.70
2022,06,07,01,44,9.70
2022,06,07,01,45,9.70
2022,06,07,01,46,9.70
2022,06,07,01,47,9.70
2022,06,07,01,48,9.70
2022,06,07,01,49,9.70
2022,06,07,01,50,9.70
2022,06,07,01,51,9.70
2022,06,07,01,52,9.70
2022,06,07,01,53,9.70
2022,06,07,01,54,9.70
2022,06,07,01,55,9.70
2022,06,07,01,56,9.60
2022,06,07,01,57,9.60
2022,06,07,01,58,9.60
2022,06,07,01,59,9.60
2022,06,07,02,00,9.60
2022,06,07,02,01,9.60
2022,06,07,02,02,9.60
2022,06,07,02,03,9.50
2022,06,07,02,04,9.50
2022,06,07,02,05,9.50
2022,06,07,02,06,9.40
2022,06,07,02,07,9.40
2022,06,07,02,08,9.40
2022,06,07,02,09,9.40
2022,06,07,02,10,9.40
2022,06,07,02,11,9.40
2022,06,07,02,12,9.40
2022,06,07,02,13,9.40
2022,06,07,02,14,9.40
2022,06,07,02,15,9.40
2022,06,07,02,16,9.40
2022,06,07,02,17,9.40
2022,06,07,02,18,9.40
2022,06,07,02,19,9.40
2022,06,07,02,20,9.50
2022,06,07,02,21,9.50
2022,06,07,02,22,9.50
2022,06,07,02,23,9.50
2022,06,07,02,24,9.50
2022,06,07,02,25,9.50
2022,06,07,02,26,9.50
2022,06,07,02,27,9.50
2022,06,07,02,28,9.50
2022,06,07,02,29,9.50
2022,06,07,02,30,9.50
2022,06,07,02,31,9.50
2022,06,07,02,32,9.50
2022,06,07,02,33,9.50
2022,06,07,02,34,9.50
2022,06,07,02,35,9.50
2022,06,07,02,36,9.50
2022,06,07,02,37,9.50
2022,06,07,02,38,9.50
2022,06,07,02,39,9.50
2022,06,07,02,40,9.50
2022,06,07,02,41,9.50
2022,06,07,02,42,9.50
2022,06,07,02,43,9.50
2022,06,07,02,44,9.50
2022,06,07,02,45,9.50
2022,06,07,02,46,9.50
2022,06,07,02,47,9.50
2022,06,07,02,48,9.50
2022,06,07,02,49,9.60
2022,06,07,02,50,9.60
2022,06,07,02,51,9.50
2022,06,07,02,52,9.50
2022,06,07,02,53,9.50
2022,06,07,02,54,9.50
2022,06,07,02,55,9.50
2022,06,07,02,56,9.50
2022,06,07,02,57,9.50
2022,06,07,02,58,9.50
2022,06,07,02,59,9.60
2022,06,07,03,00,9.60
2022,06,07,03,01,9.60
2022,06,07,03,02,9.60
2022,06,07,03,03,9.60
2022,06,07,03,04,9.60
2022,06,07,03,05,9.60
2022,06,07,03,06,9.60
2022,06,07,03,07,9.60
2022,06,07,03,08,9.60
2022,06,07,03,09,9.60
2022,06,07,03,10,9.60
2022,06,07,03,11,9.60
2022,06,07,03,12,9.60
2022,06,07,03,13,9.60
2022,06,07,03,14,9.60
2022,06,07,03,15,9.60
2022,06,07,03,16,9.60
2022,06,07,03,17,9.60
2022,06,07,03,18,9.60
2022,06,07,03,19,9.60
2022,06,07,03,20,9.60
2022,06,07,03,21,9.60
2022,06,07,03,22,9.60
2022,06,07,03,23,9.60
2022,06,07,03,24,9.60
2022,06,07,03,25,9.60
2022,06,07,03,26,9.60
2022,06,07,03,27,9.60
2022,06,07,03,28,9.60
2022,06,07,03,29,9.60
2022,06,07,03,30,9.60
2022,06,07,03,31,9.60
2022,06,07,03,32,9.50
2022,06,07,03,33,9.50
2022,06,07,03,34,9.50
2022,06,07,03,35,9.40
2022,06,07,03,36,9.40
2022,06,07,03,37,9.40
2022,06,07,03,38,9.40
2022,06,07,03,39,9.30
2022,06,07,03,40,9.30
2022,06,07,03,41,9.30
2022,06,07,03,42,9.30
2022,06,07,03,43,9.20
2022,06,07,03,44,9.20
2022,06,07,03,45,9.20
2022,06,07,03,46,9.20
2022,06,07,03,47,9.10
2022,06,07,03,48,9.10
2022,06,07,03,49,9.10
2022,06,07,03,50,9.10
2022,06,07,03,51,9.00
2022,06,07,03,52,9.00
2022,06,07,03,53,9.00
2022,06,07,03,54,9.00
2022,06,07,03,55,9.00
2022,06,07,03,56,9.00
2022,06,07,03,57,9.00
2022,06,07,03,58,9.00
2022,06,07,03,59,9.00
2022,06,07,04,00,9.00
2022,06,07,04,01,9.00
2022,06,07,04,02,9.00
2022,06,07,04,03,9.00
2022,06,07,04,04,9.00
2022,06,07,04,05,9.00
2022,06,07,04,06,9.10
2022,06,07,04,07,9.10
2022,06,07,04,08,9.10
2022,06,07,04,09,9.10
2022,06,07,04,10,9.10
2022,06,07,04,11,9.10
2022,06,07,04,12,9.10
2022,06,07,04,13,9.10
2022,06,07,04,14,9.10
2022,06,07,04,15,9.10
2022,06,07,04,16,9.10
2022,06,07,04,17,9.10
2022,06,07,04,18,9.10
2022,06,07,04,19,9.10
2022,06,07,04,20,9.10
2022,06,07,04,21,9.10
2022,06,07,04,22,9.10
2022,06,07,04,23,9.10
2022,06,07,04,24,9.10
2022,06,07,04,25,9.10
2022,06,07,04,26,9.20
2022,06,07,04,27,9.20
2022,06,07,04,28,9.20
2022,06,07,04,29,9.20
2022,06,07,04,30,9.20
2022,06,07,04,31,9.20
2022,06,07,04,32,9.20
2022,06,07,04,33,9.20
2022,06,07,04,34,9.20
2022,06,07,04,35,9.20
2022,06,07,04,36,9.20
2022,06,07,04,37,9.20
2022,06,07,04,38,9.20
2022,06,07,04,39,9.20
2022,06,07,04,40,9.30
2022,06,07,04,41,9.30
2022,06,07,04,42,9.30
2022,06,07,04,43,9.30
2022,06,07,04,44,9.30
2022,06,07,04,45,9.30
2022,06,07,04,46,9.30
2022,06,07,04,47,9.30
2022,06,07,04,48,9.30
2022,06,07,04,49,9.30
2022,06,07,04,50,9.30
2022,06,07,04,51,9.30
2022,06,07,04,52,9.30
2022,06,07,04,53,9.30
2022,06,07,04,54,9.30
2022,06,07,04,55,9.30
2022,06,07,04,56,9.30
2022,06,07,04,57,9.30
2022,06,07,04,58,9.30
2022,06,07,04,59,9.30
2022,06,07,05,00,9.30
2022,06,07,05,01,9.30
2022,06,07,05,02,9.30
2022,06,07,05,03,9.30
2022,06,07,05,04,9.30
2022,06,07,05,05,9.30
2022,06,07,05,06,9.30
2022,06,07,05,07,9.30
2022,06,07,05,08,9.30
2022,06,07,05,09,9.30
2022,06,07,05,10,9.30
2022,06,07,05,11,9.30
2022,06,07,05,12,9.30
2022,06,07,05,13,9.30
2022,06,07,05,14,9.30
2022,06,07,05,15,9.30
2022,06,07,05,16,9.30
2022,06,07,05,17,9.30
2022,06,07,05,18,9.30
2022,06,07,05,19,9.30
2022,06,07,05,20,9.30
2022,06,07,05,21,9.30
2022,06,07,05,22,9.30
2022,06,07,05,23,9.40
2022,06,07,05,24,9.40
2022,06,07,05,25,9.40
2022,06,07,05,26,9.40
2022,06,07,05,27,9.40
2022,06,07,05,28,9.40
2022,06,07,05,29,9.40
2022,06,07,05,30,9.50
2022,06,07,05,31,9.50
2022,06,07,05,32,9.50
2022,06,07,05,33,9.50
2022,06,07,05,34,9.40
2022,06,07,05,35,9.40
2022,06,07,05,36,9.40
2022,06,07,05,37,9.40
2022,06,07,05,38,9.30
2022,06,07,05,39,9.30
2022,06,07,05,40,9.30
2022,06,07,05,41,9.30
2022,06,07,05,42,9.30
2022,06,07,05,43,9.30
2022,06,07,05,44,9.30
2022,06,07,05,45,9.30
2022,06,07,05,46,9.30
2022,06,07,05,47,9.30
2022,06,07,05,48,9.30
2022,06,07,05,49,9.30
2022,06,07,05,50,9.30
2022,06,07,05,51,9.20
2022,06,07,05,52,9.20
2022,06,07,05,53,9.20
2022,06,07,05,54,9.20
2022,06,07,05,55,9.20
2022,06,07,05,56,9.20
2022,06,07,05,57,9.20
2022,06,07,05,58,9.20
2022,06,07,05,59,9.20
2022,06,07,06,00,9.20
2022,06,07,06,01,9.30
2022,06,07,06,02,9.30
2022,06,07,06,03,9.30
2022,06,07,06,04,9.30
2022,06,07,06,05,9.30
2022,06,07,06,06,9.40
2022,06,07,06,07,9.40
2022,06,07,06,08,9.40
2022,06,07,06,09,9.50
2022,06,07,06,10,9.50
2022,06,07,06,11,9.50
2022,06,07,06,12,9.60
2022,06,07,06,13,9.60
2022,06,07,06,14,9.60
2022,06,07,06,15,9.60
2022,06,07,06,16,9.60
2022,06,07,06,17,9.60
2022,06,07,06,18,9.70
2022,06,07,06,19,9.70
2022,06,07,06,20,9.70
2022,06,07,06,21,9.70
2022,06,07,06,22,9.70
2022,06,07,06,23,9.70
2022,06,07,06,24,9.80
2022,06,07,06,25,9.80
2022,06,07,06,26,9.80
2022,06,07,06,27,9.80
2022,06,07,06,28,9.80
2022,06,07,06,29,9.80
2022,06,07,06,30,9.90
2022,06,07,06,31,9.90
2022,06,07,06,32,9.90
2022,06,07,06,33,9.90
2022,06,07,06,34,10.00
2022,06,07,06,35,10.00
2022,06,07,06,36,10.00
2022,06,07,06,37,10.00
2022,06,07,06,38,10.00
2022,06,07,06,39,10.00
2022,06,07,06,40,10.00
2022,06,07,06,41,10.10
2022,06,07,06,42,10.10
2022,06,07,06,43,10.10
2022,06,07,06,44,10.10
2022,06,07,06,45,10.10
2022,06,07,06,46,10.10
2022,06,07,06,47,10.10
2022,06,07,06,48,10.20
2022,06,07,06,49,10.20
2022,06,07,06,50,10.20
2022,06,07,06,51,10.20
2022,06,07,06,52,10.20
2022,06,07,06,53,10.20
2022,06,07,06,54,10.30
2022,06,07,06,55,10.30
2022,06,07,06,56,10.30
2022,06,07,06,57,10.30
2022,06,07,06,58,10.30
2022,06,07,06,59,10.30
2022,06,07,07,00,10.30
2022,06,07,07,01,10.40
2022,06,07,07,02,10.40
2022,06,07,07,03,10.40
2022,06,07,07,04,10.40
2022,06,07,07,05,10.40
2022,06,07,07,06,10.40
2022,06,07,07,07,10.40
2022,06,07,07,08,10.40
2022,06,07,07,09,10.40
2022,06,07,07,10,10.50
2022,06,07,07,11,10.50
2022,06,07,07,12,10.50
2022,06,07,07,13,10.60
2022,06,07,07,14,10.60
2022,06,07,07,15,10.60
2022,06,07,07,16,10.70
2022,06,07,07,17,10.70
2022,06,07,07,18,10.70
2022,06,07,07,19,10.60
2022,06,07,07,20,10.60
2022,06,07,07,21,10.60
2022,06,07,07,22,10.70
2022,06,07,07,23,10.70
2022,06,07,07,24,10.80
2022,06,07,07,25,10.80
2022,06,07,07,26,10.80
2022,06,07,07,27,10.80
2022,06,07,07,28,10.90
2022,06,07,07,29,10.90
2022,06,07,07,30,11.00
2022,06,07,07,31,11.00
2022,06,07,07,32,11.10
2022,06,07,07,33,11.10
2022,06,07,07,34,11.10
2022,06,07,07,35,11.00
2022,06,07,07,36,11.00
2022,06,07,07,37,10.90
2022,06,07,07,38,10.90
2022,06,07,07,39,11.00
2022,06,07,07,40,11.00
2022,06,07,07,41,11.10
2022,06,07,07,42,11.10
2022,06,07,07,43,11.20
2022,06,07,07,44,11.20
2022,06,07,07,45,11.20
2022,06,07,07,46,11.30
2022,06,07,07,47,11.40
2022,06,07,07,48,11.40
2022,06,07,07,49,11.50
2022,06,07,07,50,11.40
2022,06,07,07,51,11.40
2022,06,07,07,52,11.40
2022,06,07,07,53,11.40
2022,06,07,07,54,11.40
2022,06,07,07,55,11.40
2022,06,07,07,56,11.40
2022,06,07,07,57,11.40
2022,06,07,07,58,11.40
2022,06,07,07,59,11.40
2022,06,07,08,00,11.40
2022,06,07,08,01,11.40
2022,06,07,08,02,11.40
2022,06,07,08,03,11.30
2022,06,07,08,04,11.30
2022,06,07,08,05,11.30
2022,06,07,08,06,11.30
2022,06,07,08,07,11.30
2022,06,07,08,08,11.30
2022,06,07,08,09,11.30
2022,06,07,08,10,11.30
2022,06,07,08,11,11.30
2022,06,07,08,12,11.30
2022,06,07,08,13,11.30
2022,06,07,08,14,11.30
2022,06,07,08,15,11.40
2022,06,07,08,16,11.40
2022,06,07,08,17,11.40
2022,06,07,08,18,11.40
2022,06,07,08,19,11.40
2022,06,07,08,20,11.40
2022,06,07,08,21,11.40
2022,06,07,08,22,11.40
2022,06,07,08,23,11.40
2022,06,07,08,24,11.40
2022,06,07,08,25,11.40
2022,06,07,08,26,11.50
2022,06,07,08,27,11.60
2022,06,07,08,28,11.60
2022,06,07,08,29,11.70
2022,06,07,08,30,11.70
2022,06,07,08,31,11.80
2022,06,07,08,32,11.80
2022,06,07,08,33,11.90
2022,06,07,08,34,11.90
2022,06,07,08,35,12.00
2022,06,07,08,36,12.00
2022,06,07,08,37,12.10
2022,06,07,08,38,12.10
2022,06,07,08,39,12.20
2022,06,07,08,40,12.30
2022,06,07,08,41,12.40
2022,06,07,08,42,12.50
2022,06,07,08,43,12.60
2022,06,07,08,44,12.60
2022,06,07,08,45,12.60
2022,06,07,08,46,12.60
2022,06,07,08,47,12.60
2022,06,07,08,48,12.60
2022,06,07,08,49,12.60
2022,06,07,08,50,12.70
2022,06,07,08,51,12.70
2022,06,07,08,52,12.70
2022,06,07,08,53,12.70
2022,06,07,08,54,12.80
2022,06,07,08,55,12.80
2022,06,07,08,56,12.80
2022,06,07,08,57,12.80
2022,06,07,08,58,12.90
2022,06,07,08,59,12.90
2022,06,07,09,00,12.90
2022,06,07,09,01,12.90
2022,06,07,09,02,12.90
2022,06,07,09,03,13.00
2022,06,07,09,04,13.00
2022,06,07,09,05,13.10
2022,06,07,09,06,13.10
2022,06,07,09,07,13.10
2022,06,07,09,08,13.10
2022,06,07,09,09,13.20
2022,06,07,09,10,13.20
2022,06,07,09,11,13.20
2022,06,07,09,12,13.20
2022,06,07,09,13,13.20
2022,06,07,09,14,13.30
2022,06,07,09,15,13.30
2022,06,07,09,16,13.30
2022,06,07,09,17,13.40
2022,06,07,09,18,13.40
2022,06,07,09,19,13.40
2022,06,07,09,20,13.40
2022,06,07,09,21,13.30
2022,06,07,09,22,13.30
2022,06,07,09,23,13.20
2022,06,07,09,24,13.20
2022,06,07,09,25,13.10
2022,06,07,09,26,13.10
2022,06,07,09,27,13.10
2022,06,07,09,28,13.10
2022,06,07,09,29,13.20
2022,06,07,09,30,13.20
2022,06,07,09,31,13.30
2022,06,07,09,32,13.30
2022,06,07,09,33,13.30
2022,06,07,09,34,13.30
2022,06,07,09,35,13.30
2022,06,07,09,36,13.30
2022,06,07,09,37,13.30
2022,06,07,09,38,13.30
2022,06,07,09,39,13.30
2022,06,07,09,40,13.30
2022,06,07,09,41,13.40
2022,06,07,09,42,13.40
2022,06,07,09,43,13.40
2022,06,07,09,44,13.40
2022,06,07,09,45,13.40
2022,06,07,09,46,13.40
2022,06,07,09,47,13.40
2022,06,07,09,48,13.40
2022,06,07,09,49,13.40
2022,06,07,09,50,13.40
2022,06,07,09,51,13.50
2022,06,07,09,52,13.50
2022,06,07,09,53,13.60
2022,06,07,09,54,13.60
2022,06,07,09,55,13.60
2022,06,07,09,56,13.60
2022,06,07,09,57,13.60
2022,06,07,09,58,13.60
2022,06,07,09,59,13.60
2022,06,07,10,00,13.60
2022,06,07,10,01,13.60
2022,06,07,10,02,13.60
2022,06,07,10,03,13.60
2022,06,07,10,04,13.70
2022,06,07,10,05,13.70
2022,06,07,10,06,13.80
2022,06,07,10,07,13.80
2022,06,07,10,08,13.80
2022,06,07,10,09,13.90
2022,06,07,10,10,13.90
2022,06,07,10,11,13.90
2022,06,07,10,12,13.90
2022,06,07,10,13,13.90
2022,06,07,10,14,13.90
2022,06,07,10,15,13.90
2022,06,07,10,16,14.00
2022,06,07,10,17,14.00
2022,06,07,10,18,14.00
2022,06,07,10,19,13.90
2022,06,07,10,20,13.90
2022,06,07,10,21,13.90
2022,06,07,10,22,13.90
2022,06,07,10,23,13.90
2022,06,07,10,24,14.00
2022,06,07,10,25,14.00
2022,06,07,10,26,14.10
2022,06,07,10,27,14.10
2022,06,07,10,28,14.20
2022,06,07,10,29,14.30
2022,06,07,10,30,14.30
2022,06,07,10,31,14.40
2022,06,07,10,32,14.50
2022,06,07,10,33,14.60
2022,06,07,10,34,14.60
2022,06,07,10,35,14.60
2022,06,07,10,36,14.60
2022,06,07,10,37,14.70
2022,06,07,10,38,14.70
2022,06,07,10,39,14.70
2022,06,07,10,40,14.70
2022,06,07,10,41,14.70
2022,06,07,10,42,14.80
2022,06,07,10,43,14.80
2022,06,07,10,44,14.80
2022,06,07,10,45,14.90
2022,06,07,10,46,14.90
2022,06,07,10,47,15.00
2022,06,07,10,48,15.10
2022,06,07,10,49,15.10
2022,06,07,10,50,15.20
2022,06,07,10,51,15.20
2022,06,07,10,52,15.20
2022,06,07,10,53,15.20
2022,06,07,10,54,15.20
2022,06,07,10,55,15.20
2022,06,07,10,56,15.30
2022,06,07,10,57,15.30
2022,06,07,10,58,15.30
2022,06,07,10,59,15.30
2022,06,07,11,00,15.30
2022,06,07,11,01,15.30
2022,06,07,11,02,15.40
2022,06,07,11,03,15.40
2022,06,07,11,04,15.40
2022,06,07,11,05,15.50
2022,06,07,11,06,15.60
2022,06,07,11,07,15.70
2022,06,07,11,08,15.70
2022,06,07,11,09,15.80
2022,06,07,11,10,15.90
2022,06,07,11,11,16.00
2022,06,07,11,12,16.10
2022,06,07,11,13,16.10
2022,06,07,11,14,16.10
2022,06,07,11,15,16.10
2022,06,07,11,16,16.10
2022,06,07,11,17,16.10
2022,06,07,11,18,16.10
2022,06,07,11,19,16.20
2022,06,07,11,20,16.20
2022,06,07,11,21,16.20
2022,06,07,11,22,16.20
2022,06,07,11,23,16.10
2022,06,07,11,24,16.20
2022,06,07,11,25,16.20
2022,06,07,11,26,16.20
2022,06,07,11,27,16.20
2022,06,07,11,28,16.20
2022,06,07,11,29,16.20
2022,06,07,11,30,16.30
2022,06,07,11,31,16.30
2022,06,07,11,32,16.30
2022,06,07,11,33,16.40
2022,06,07,11,34,16.60
2022,06,07,11,35,16.60
2022,06,07,11,36,16.60
2022,06,07,11,37,16.50
2022,06,07,11,38,16.50
2022,06,07,11,39,16.50
2022,06,07,11,40,16.60
2022,06,07,11,41,16.60
2022,06,07,11,42,16.60
2022,06,07,11,43,16.70
2022,06,07,11,44,16.70
2022,06,07,11,45,16.70
2022,06,07,11,46,16.70
2022,06,07,11,47,16.80
2022,06,07,11,48,16.80
2022,06,07,11,49,16.80
2022,06,07,11,50,16.90
2022,06,07,11,51,17.00
2022,06,07,11,52,17.10
2022,06,07,11,53,17.10
2022,06,07,11,54,17.20
2022,06,07,11,55,17.30
2022,06,07,11,56,17.30
2022,06,07,11,57,17.30
2022,06,07,11,58,17.30
2022,06,07,11,59,17.30
2022,06,07,12,00,17.30
2022,06,07,12,01,17.30
2022,06,07,12,02,17.40
2022,06,07,12,03,17.40
2022,06,07,12,04,17.50
2022,06,07,12,05,17.50
2022,06,07,12,06,17.60
2022,06,07,12,07,17.60
2022,06,07,12,08,17.50
2022,06,07,12,09,17.50
2022,06,07,12,10,17.50
2022,06,07,12,11,17.40
2022,06,07,12,12,17.40
2022,06,07,12,13,17.40
2022,06,07,12,14,17.40
2022,06,07,12,15,17.40
2022,06,07,12,16,17.40
2022,06,07,12,17,17.40
2022,06,07,12,18,17.40
2022,06,07,12,19,17.40
2022,06,07,12,20,17.30
2022,06,07,12,21,17.30
2022,06,07,12,22,17.30
2022,06,07,12,23,17.30
2022,06,07,12,24,17.20
2022,06,07,12,25,17.20
2022,06,07,12,26,17.20
2022,06,07,12,27,17.20
2022,06,07,12,28,17.20
2022,06,07,12,29,17.20
2022,06,07,12,30,17.20
2022,06,07,12,31,17.20
2022,06,07,12,32,17.30
2022,06,07,12,33,17.30
2022,06,07,12,34,17.30
2022,06,07,12,35,17.40
2022,06,07,12,36,17.40
2022,06,07,12,37,17.50
2022,06,07,12,38,17.50
2022,06,07,12,39,17.50
2022,06,07,12,40,17.60
2022,06,07,12,41,17.60
2022,06,07,12,42,17.60
2022,06,07,12,43,17.70
2022,06,07,12,44,17.70
2022,06,07,12,45,17.70
2022,06,07,12,46,17.70
2022,06,07,12,47,17.80
2022,06,07,12,48,17.80
2022,06,07,12,49,17.80
2022,06,07,12,50,17.90
2022,06,07,12,51,17.90
2022,06,07,12,52,17.90
2022,06,07,12,53,18.00
2022,06,07,12,54,18.10
2022,06,07,12,55,18.10
2022,06,07,12,56,18.10
2022,06,07,12,57,18.10
2022,06,07,12,58,18.20
2022,06,07,12,59,18.40
2022,06,07,13,00,18.50
2022,06,07,13,01,18.60
2022,06,07,13,02,18.70
2022,06,07,13,03,18.80
2022,06,07,13,04,18.80
2022,06,07,13,05,18.80
2022,06,07,13,06,18.80
2022,06,07,13,07,18.80
2022,06,07,13,08,18.80
2022,06,07,13,09,18.80
2022,06,07,13,10,18.80
2022,06,07,13,11,18.80
2022,06,07,13,12,18.80
2022,06,07,13,13,18.80
2022,06,07,13,14,18.90
2022,06,07,13,15,18.90
2022,06,07,13,16,18.90
2022,06,07,13,17,18.90
2022,06,07,13,18,18.90
2022,06,07,13,19,18.90
2022,06,07,13,20,18.90
2022,06,07,13,21,18.90
2022,06,07,13,22,18.90
2022,06,07,13,23,18.80
2022,06,07,13,24,18.60
2022,06,07,13,25,18.60
2022,06,07,13,26,18.50
2022,06,07,13,27,18.50
2022,06,07,13,28,18.40
2022,06,07,13,29,18.40
2022,06,07,13,30,18.30
2022,06,07,13,31,18.30
2022,06,07,13,32,18.30
2022,06,07,13,33,18.30
2022,06,07,13,34,18.40
2022,06,07,13,35,18.40
2022,06,07,13,36,18.40
2022,06,07,13,37,18.40
2022,06,07,13,38,18.50
2022,06,07,13,39,18.60
2022,06,07,13,40,18.60
2022,06,07,13,41,18.70
2022,06,07,13,42,18.70
2022,06,07,13,43,18.70
2022,06,07,13,44,18.70
2022,06,07,13,45,18.80
2022,06,07,13,46,18.80
2022,06,07,13,47,18.80
2022,06,07,13,48,18.80
2022,06,07,13,49,18.80
2022,06,07,13,50,18.90
2022,06,07,13,51,18.90
2022,06,07,13,52,18.80
2022,06,07,13,53,18.80
2022,06,07,13,54,18.80
2022,06,07,13,55,18.80
2022,06,07,13,56,18.80
2022,06,07,13,57,18.80
2022,06,07,13,58,18.80
2022,06,07,13,59,18.80
2022,06,07,14,00,18.90
2022,06,07,14,01,19.00
2022,06,07,14,02,19.00
2022,06,07,14,03,19.10
2022,06,07,14,04,19.20
2022,06,07,14,05,19.20
2022,06,07,14,06,19.30
2022,06,07,14,07,19.30
2022,06,07,14,08,19.30
2022,06,07,14,09,19.30
2022,06,07,14,10,19.20
2022,06,07,14,11,19.20
2022,06,07,14,12,19.20
2022,06,07,14,13,19.20
2022,06,07,14,14,19.30
2022,06,07,14,15,19.30
2022,06,07,14,16,19.40
2022,06,07,14,17,19.40
2022,06,07,14,18,19.50
2022,06,07,14,19,19.50
2022,06,07,14,20,19.60
2022,06,07,14,21,19.60
2022,06,07,14,22,19.60
2022,06,07,14,23,19.50
2022,06,07,14,24,19.60
2022,06,07,14,25,19.60
2022,06,07,14,26,19.50
2022,06,07,14,27,19.50
2022,06,07,14,28,19.40
2022,06,07,14,29,19.40
2022,06,07,14,30,19.40
2022,06,07,14,31,19.40
2022,06,07,14,32,19.40
2022,06,07,14,33,19.40
2022,06,07,14,34,19.50
2022,06,07,14,35,19.60
2022,06,07,14,36,19.60
2022,06,07,14,37,19.70
2022,06,07,14,38,19.70
2022,06,07,14,39,19.80
2022,06,07,14,40,19.80
2022,06,07,14,41,19.70
2022,06,07,14,42,19.60
2022,06,07,14,43,19.60
2022,06,07,14,44,19.60
2022,06,07,14,45,19.60
2022,06,07,14,46,19.60
2022,06,07,14,47,19.70
2022,06,07,14,48,19.70
2022,06,07,14,49,19.70
2022,06,07,14,50,19.70
2022,06,07,14,51,19.70
2022,06,07,14,52,19.80
2022,06,07,14,53,19.80
2022,06,07,14,54,19.90
2022,06,07,14,55,20.00
2022,06,07,14,56,20.00
2022,06,07,14,57,20.10
2022,06,07,14,58,20.20
2022,06,07,14,59,20.20
2022,06,07,15,00,20.30
2022,06,07,15,01,20.30
2022,06,07,15,02,20.30
2022,06,07,15,03,20.30
2022,06,07,15,04,20.30
2022,06,07,15,05,20.40
2022,06,07,15,06,20.40
2022,06,07,15,07,20.40
2022,06,07,15,08,20.40
2022,06,07,15,09,20.50
2022,06,07,15,10,20.50
2022,06,07,15,11,20.60
2022,06,07,15,12,20.60
2022,06,07,15,13,20.70
2022,06,07,15,14,20.70
2022,06,07,15,15,20.80
2022,06,07,15,16,20.70
2022,06,07,15,17,20.70
2022,06,07,15,18,20.80
2022,06,07,15,19,20.80
2022,06,07,15,20,20.80
2022,06,07,15,21,20.90
2022,06,07,15,22,20.90
2022,06,07,15,23,21.00
2022,06,07,15,24,21.00
2022,06,07,15,25,21.10
2022,06,07,15,26,21.20
2022,06,07,15,27,21.20
2022,06,07,15,28,21.30
2022,06,07,15,29,21.30
2022,06,07,15,30,21.30
2022,06,07,15,31,21.40
2022,06,07,15,32,21.40
2022,06,07,15,33,21.40
2022,06,07,15,34,21.40
2022,06,07,15,35,21.40
2022,06,07,15,36,21.40
2022,06,07,15,37,21.40
2022,06,07,15,38,21.40
2022,06,07,15,39,21.50
2022,06,07,15,40,21.50
2022,06,07,15,41,21.60
2022,06,07,15,42,21.60
2022,06,07,15,43,21.60
2022,06,07,15,44,21.60
2022,06,07,15,45,21.50
2022,06,07,15,46,21.50
2022,06,07,15,47,21.50
2022,06,07,15,48,21.50
2022,06,07,15,49,21.50
2022,06,07,15,50,21.50
2022,06,07,15,51,21.50
2022,06,07,15,52,21.50
2022,06,07,15,53,21.50
2022,06,07,15,54,21.50
2022,06,07,15,55,21.50
2022,06,07,15,56,21.50
2022,06,07,15,57,21.50
2022,06,07,15,58,21.40
2022,06,07,15,59,21.40
2022,06,07,16,00,21.40
2022,06,07,16,01,21.40
2022,06,07,16,02,21.30
2022,06,07,16,03,21.20
2022,06,07,16,04,21.10
2022,06,07,16,05,21.10
2022,06,07,16,06,21.00
2022,06,07,16,07,21.00
2022,06,07,16,08,21.10
2022,06,07,16,09,21.10
2022,06,07,16,10,21.00
2022,06,07,16,11,21.10
2022,06,07,16,12,21.10
2022,06,07,16,13,21.20
2022,06,07,16,14,21.20
2022,06,07,16,15,21.20
2022,06,07,16,16,21.30
2022,06,07,16,17,21.30
2022,06,07,16,18,21.30
2022,06,07,16,19,21.20
2022,06,07,16,20,21.20
2022,06,07,16,21,21.20
2022,06,07,16,22,21.10
2022,06,07,16,23,21.10
2022,06,07,16,24,21.00
2022,06,07,16,25,21.00
2022,06,07,16,26,20.90
2022,06,07,16,27,20.90
2022,06,07,16,28,20.80
2022,06,07,16,29,20.80
2022,06,07,16,30,20.80
2022,06,07,16,31,20.80
2022,06,07,16,32,20.70
2022,06,07,16,33,20.70
2022,06,07,16,34,20.70
2022,06,07,16,35,20.60
2022,06,07,16,36,20.60
2022,06,07,16,37,20.60
2022,06,07,16,38,20.60
2022,06,07,16,39,20.50
2022,06,07,16,40,20.50
2022,06,07,16,41,20.50
2022,06,07,16,42,20.40
2022,06,07,16,43,20.40
2022,06,07,16,44,20.30
2022,06,07,16,45,20.20
2022,06,07,16,46,20.20
2022,06,07,16,47,20.20
2022,06,07,16,48,20.10
2022,06,07,16,49,20.10
2022,06,07,16,50,20.10
2022,06,07,16,51,20.10
2022,06,07,16,52,20.00
2022,06,07,16,53,20.00
2022,06,07,16,54,19.90
2022,06,07,16,55,19.90
2022,06,07,16,56,19.80
2022,06,07,16,57,19.80
2022,06,07,16,58,19.80
2022,06,07,16,59,19.80
2022,06,07,17,00,19.80
2022,06,07,17,01,19.70
2022,06,07,17,02,19.70
2022,06,07,17,03,19.70
2022,06,07,17,04,19.70
2022,06,07,17,05,19.70
2022,06,07,17,06,19.60
2022,06,07,17,07,19.60
2022,06,07,17,08,19.60
2022,06,07,17,09,19.50
2022,06,07,17,10,19.60
2022,06,07,17,11,19.60
2022,06,07,17,12,19.50
2022,06,07,17,13,19.50
2022,06,07,17,14,19.50
2022,06,07,17,15,19.50
2022,06,07,17,16,19.50
2022,06,07,17,17,19.50
2022,06,07,17,18,19.50
2022,06,07,17,19,19.50
2022,06,07,17,20,19.40
2022,06,07,17,21,19.40
2022,06,07,17,22,19.40
2022,06,07,17,23,19.40
2022,06,07,17,24,19.40
2022,06,07,17,25,19.40
2022,06,07,17,26,19.40
2022,06,07,17,27,19.40
2022,06,07,17,28,19.40
2022,06,07,17,29,19.50
2022,06,07,17,30,19.50
2022,06,07,17,31,19.50
2022,06,07,17,32,19.50
2022,06,07,17,33,19.60